Location: Brantley
(31.5822°N, 86.2569°W)
Time: 19:24:24
(UTC+00:00)

Vanguard 3 - Pass Details

Date: 18 February 2026
Orbit: 507 x 3205 km, 33.4° (Epoch: 9 March)

Event Time Altitude Azimuth Distance (km) Brightness Sun altitude
Rises 01:34:17 0° 281° (W) 3,721 11.8 -26.3°
Reaches altitude 10° 01:37:27 10° 282° (WNW) 2,427 10.6 -27.0°
Enters shadow 01:41:50 57° 282° (WNW) 753 7.1 -27.9°
Maximum altitude 01:42:45 90° 61° (ENE) 611 - -28.1°
Drops below altitude 10° 01:46:31 10° 103° (ESE) 1,753 - -28.9°
Sets 01:48:30 0° 103° (ESE) 2,594 - -29.3°
